OBERSTADN Weather Reports


time (UTC)temp
C
wind
direction
speed
KPH
gust
KPH
rain 1hr
cm
rain 24hr
cm
rain mn
cm
humidity
%
barometer
mb
20260506143210 17 265 9.7 0.0 0.00 0.00 0.00 60 1005.4
20260506140210 18 99 9.7 0.0 0.00 0.00 0.00 59 1005.4
20260506133211 17 307 9.7 0.0 0.00 0.00 0.00 59 1005.6
20260506130211 17 257 9.7 0.0 0.00 0.00 0.00 60 1005.7
20260506123210 17 223 11.3 0.0 0.00 0.00 0.00 63 1005.5
20260506120210 17 121 3.2 0.0 0.00 0.00 0.00 64 1005.4
20260506113217 16 47 3.2 0.0 0.00 0.00 0.00 64 1005.7
20260506110210 15 331 6.4 0.0 0.00 0.00 0.00 70 1005.9
20260506100213 15 336 4.8 0.0 0.00 0.00 0.00 73 1006.5
20260506093211 15 61 4.8 0.0 0.00 0.00 0.00 73 1006.6
20260506090211 14 9 3.2 0.0 0.00 0.00 0.00 79 1006.4
20260506083211 13 340 8.0 0.0 0.00 0.00 0.00 80 1006.4
20260506080212 13 344 6.4 0.0 0.00 0.00 0.00 81 1006.4
20260506073211 12 274 8.0 0.0 0.00 0.00 0.00 82 1006.7
20260506070212 12 165 8.0 0.0 0.00 0.00 0.00 86 1006.9
20260506060210 10 119 3.2 0.0 0.00 0.00 0.00 93 1006.7
20260506050211 7 317 1.6 0.0 0.00 0.00 0.00 91 1007.0
20260506043211 7 309 8.0 0.0 0.00 0.00 0.00 90 1007.2
20260506040211 7 130 4.8 0.0 0.00 0.00 0.00 90 1007.4
20260506033211 8 323 1.6 0.0 0.00 0.00 0.00 89 1007.7
20260506030212 8 211 4.8 0.0 0.00 0.00 0.00 90 1007.7
20260506023211 9 156 1.6 0.0 0.00 0.00 0.00 88 1008.1
20260506020212 10 346 1.6 0.0 0.00 0.00 0.00 88 1008.1
20260506013211 10 270 4.8 0.0 0.00 0.00 0.00 88 1008.3
20260506010213 10 227 12.9 0.0 0.00 0.00 0.00 88 1008.6
20260506003209 10 234 9.7 0.0 0.00 0.00 0.00 88 1008.4
20260506000211 10 200 12.9 0.0 0.00 0.00 0.00 87 1008.8
20260505233209 10 217 8.0 0.0 0.00 0.00 0.00 87 1009.0
20260505230209 10 192 8.0 0.0 0.00 0.00 0.00 85 1009.0
20260505223210 11 198 11.3 0.0 0.00 0.00 0.00 84 1009.1
20260505213211 12 249 16.1 0.0 0.00 0.00 0.00 81 1009.1
20260505210215 12 247 11.3 0.0 0.00 0.00 0.00 79 1009.1
20260505203209 13 235 12.9 0.0 0.00 0.00 0.00 78 1008.7
20260505200210 13 194 16.1 0.0 0.00 0.00 0.00 77 1009.0
20260505193209 14 195 14.5 0.0 0.00 0.00 0.00 77 1008.8
20260505190215 15 236 22.5 0.0 0.00 0.00 0.00 75 1008.2
20260505183212 16 202 17.7 0.0 0.00 0.00 0.00 69 1007.7
20260505180211 16 275 16.1 0.0 0.00 0.00 0.00 64 1007.3
20260505173210 17 202 8.0 0.0 0.00 0.00 0.00 62 1007.1
20260505170210 18 234 9.7 0.0 0.00 0.00 0.00 60 1007.0
20260505163211 18 262 11.3 0.0 0.00 0.00 0.00 58 1007.0
20260505153210 16 355 3.2 0.0 0.00 0.00 0.00 72 1007.1
20260505150216 16 323 11.3 0.0 0.00 0.00 0.00 71 1007.0